Find Starlink 2589

NORAD ID: 48371 Int'l Des: 2021-038 Owner: SPXS Country: US Constellation: starlink operational
LEOCIRCULAR

当前视图

正在加载3D地球...

About Starlink 2589

Starlink 2589 (NORAD 48371) is a starlink constellation satellite (v1.0) launched May 4, 2021 by SPXS of US. It operates in LEO, CIRCULAR orbit with a mass of 260.00 kg.

即将过境

Passes for default location (London). Set your location on the main map for personalized predictions.

高度历史

Loading altitude history...

两行轨道根数

1 48371U 21038U 26246.16216191 .00000887 00000-0 40355-4 0 9998
2 48371 53.1591 242.0028 0001365 95.2846 264.8311 15.31692725294412
Epoch: Sep 3, 2026 • Age: 22 hours

当前状态

高度 488.7 km
远地点 / 近地点 N/A
速度 7.62 km/s
星下点 -49.39°S, 171.69°E
发射日期 May 4, 2021
运行时间 5.3 years
类型 internet

技术详情

分类 Payload
质量 260.00 kg
干质量 248.00 kg
总质量 260.00 kg
长度 0.20 m
直径 2.80 m
跨度 9.00 m
形状 Box + pan
制造商 SPXS
平台类型 Starlink
阶段状态 In Orbit
所有者/国家 SPXS/US

Most Searched